Terminal Aerodrome Forecast
Issued by NWS

Current Version | Previous Version | Text Only | Print | Product List | Glossary On
Versions: 1 2 3 4 5 6 7 8 9 10 11 12 13 14 15 16 17 18 19 20 21 22 23 24 25 26 27 28 29 30 31 32 33 34 35 36 37 38 39 40 41 42 43 44 45 46 47 48 49 50
000
FTUS41 KCTP 301525 AAB
TAFJST
TAF AMD
KJST 301525Z 3015/3112 28015G31KT P6SM BKN027 OVC035
     FM302330 29013G21KT P6SM VCSH SCT027 BKN035
     FM310100 28008KT P6SM BKN035
     FM311000 18007KT P6SM SCT030 BKN100=

USA.gov is the U.S. government's official web portal to all federal, state and local government web resources and services.